Voltar ao catálogo

FENGYUN 1C DEB

AtivoSSO
NORAD 30739·DEBRIS·🇨🇳 China

Lançado May 10, 1999 de Taiyuan Satellite Launch Center

Loading…

Próximas Passagens (próximas 24 horas)

TLE

AtualizadoSource: Space-Track

Época: Sep 14, 2026, 09:59 UTC

1 30739U 99025ASZ 26257.41644909  .00000323  00000-0  17970-3 0  9991
2 30739  98.7172 242.9781 0099543 248.4206 270.9027 14.15295250  7500

Acompanhe FENGYUN 1C DEB em tempo real com AllMySat

Download on the App Store